This demonstration page uses our WeatherBlox Daily Observations layout. Learn more.

Left ArrowRight Arrow

38.89511, -77.03637

Hourly Observations for February 15, 2017

Temp ( °F °C ) Dew Point ( °F °C ) Humidity (%) Winds ( mph kmh ) Pressure ( in mb ) Visibility ( mi km ) Precip ( " mm )
12:52 am 00:52 Cloudy 40 4.4 28 -2.2 63 63 Calm 29.70 1006 10 16 0.00 0.00
1:52 am 01:52 Cloudy 38 3.3 30 -1.1 73 73 S 3 6 29.66 1005 10 16 0.00 0.00
2:52 am 02:52 Cloudy 39 3.9 33 0.6 79 79 S 3 6 29.64 1004 10 16 0.00 0.00
3:52 am 03:52 Cloudy 38 3.3 29 -1.7 70 70 SSW 3 6 29.64 1004 10 16 0.00 0.00
4:52 am 04:52 Cloudy 39 3.9 32 0 76 76 S 7 11 29.60 1002 10 16 0.00 0.00
5:52 am 05:52 Cloudy 40 4.4 30 -1.1 68 68 SSW 6 9 29.57 1002 10 16 0.00 0.00
6:52 am 06:52 Cloudy 41 5 30 -1.1 65 65 SSW 5 7 29.55 1001 10 16 0.00 0.00
7:52 am 07:52 Cloudy 42 5.6 30 -1.1 62 62 WSW 5 7 29.55 1001 10 16 0.00 0.00
8:52 am 08:52 Cloudy 43 6.1 30 -1.1 60 60 S 6 9 29.53 1000 10 16 0.00 0.00
9:52 am 09:52 Cloudy 44 6.7 33 0.6 65 65 S 6 9 29.51 999 10 16 0.00 0.00
10:52 am 10:52 Cloudy 45 7.2 36 2.2 71 71 S 7 11 29.48 998 10 16 0.00 0.00
11:52 am 11:52 Cloudy 49 9.4 38 3.3 66 66 VRB 5 7 29.47 998 10 16 0.00 0.00
12:52 pm 12:52 Mostly Cloudy 51 10.6 29 -1.7 43 43 NW 22 35 29.45 997 10 16 0.00 0.00
1:52 pm 13:52 Partly Cloudy 51 10.6 30 -1.1 44 44 NW 22 35 29.47 998 10 16 0.00 0.00
2:52 pm 14:52 Mostly Cloudy 49 9.4 22 -5.6 35 35 WNW 22 35 29.50 999 10 16 0.00 0.00
3:52 pm 15:52 Mostly Cloudy 45 7.2 22 -5.6 40 40 NW 28 44 29.54 1001 10 16 0.00 0.00
4:52 pm 16:52 Mostly Sunny 44 6.7 20 -6.7 38 38 NW 22 35 29.56 1001 10 16 0.00 0.00
5:52 pm 17:52 Mostly Clear 43 6.1 20 -6.7 40 40 WNW 13 20 29.57 1001 10 16 0.00 0.00
6:52 pm 18:52 Mostly Clear 41 5 18 -7.8 39 39 NW 15 24 29.61 1003 10 16 0.00 0.00
7:52 pm 19:52 Mostly Clear 40 4.4 18 -7.8 41 41 NW 13 20 29.65 1004 10 16 0.00 0.00
8:52 pm 20:52 Partly Cloudy 39 3.9 18 -7.8 43 43 WNW 13 20 29.67 1005 10 16 0.00 0.00
9:52 pm 21:52 Mostly Clear 38 3.3 17 -8.3 43 43 WNW 8 13 29.67 1005 10 16 0.00 0.00
10:52 pm 22:52 Mostly Cloudy 38 3.3 16 -8.9 41 41 WNW 9 15 29.67 1005 10 16 0.00 0.00
11:52 pm 23:52 Partly Cloudy 38 3.3 18 -7.8 44 44 WNW 14 22 29.66 1005 10 16 0.00 0.00

Powered by AerisWeather